Hourly Data Report for October 29, 2014

All times are specified in Local Standard Time (LST). Add 1 hour to adjust for Daylight Saving Time where and when it is observed.

CAPE DORSET A
NUNAVUT

64°13'49.000" N
76°31'30.000" W
48.20 m
2400637
71366
YTE

Download Data

Hourly Data (October 2014)
Hourly Data Report for October 29, 2014
Temp Definition
°C
Dew Point Temp Definition
°C
Rel Hum Definition
%
Wind Dir Definition
10's deg

Wind Spd Definition
km/h
Visibility Definition
km
Stn Press Definition
kPa
Hmdx Definition


Wind Chill Definition


Weather Definition


TIME
00:00 Legend Double Dagger -4.6 -7.1 83 32 17 16.1 100.55   -10 LegendNANA
01:00 Legend Double Dagger -4.7 -6.9 85 31 11 16.1 100.54   -9 LegendNANA
02:00 Legend Double Dagger -5.0 -7.3 84 32 17 16.1 100.58   -11 LegendNANA
03:00 Legend Double Dagger -5.1 -7.3 85 34 13 16.1 100.58   -10 LegendNANA
04:00 Legend Double Dagger -5.2 -7.7 83 30 13 16.1 100.57   -10 Snow
05:00 Legend Double Dagger -5.3 -8.3 80 34 13 16.1 100.57   -10 LegendNANA
06:00 Legend Double Dagger -5.1 -8.5 77 32 18 16.1 100.55   -11 LegendNANA
07:00 Legend Double Dagger -5.4 -8.6 78 33 18 16.1 100.57   -12 LegendNANA
08:00 Legend Double Dagger -5.5 -8.9 77 35 13 16.1 100.57   -11 Snow
09:00 Legend Double Dagger -5.4 -8.5 79 35 8 16.1 100.54   -9 Snow
10:00 Legend Double Dagger -5.2 -8.1 80 34 15 16.1 100.52   -11 Snow
11:00 Legend Double Dagger -5.3 -7.5 84 35 9 14.5 100.50   -9 Snow
12:00 Legend Double Dagger -4.9 -7.3 83 34 13 16.1 100.49   -10 Snow
13:00 Legend Double Dagger -5.0 -7.5 83 35 17 16.1 100.49   -11 Snow
14:00 Legend Double Dagger -5.0 -7.7 81 35 17 16.1 100.48   -11 Snow
15:00 Legend Double Dagger -5.2 -8.1 80 36 17 16.1 100.50   -11 Snow
16:00 Legend Double Dagger -5.2 -8.3 79 36 21 16.1 100.48   -12 Snow
17:00 Legend Double Dagger -5.2 -8.1 80 36 18 16.1 100.45   -11 LegendNANA
18:00 Legend Double Dagger -5.3 -8.1 81 36 18 16.1 100.44   -12 LegendNANA
19:00 Legend Double Dagger -5.4 -8.1 82 36 22 16.1 100.43   -12 LegendNANA
20:00 Legend Double Dagger -5.5 -8.2 81 1 22 16.1 100.42   -13 LegendNANA
21:00 Legend Double Dagger -5.6 -8.5 80 1 21 16.1 100.39   -12 LegendNANA
22:00 Legend Double Dagger -5.8 -8.9 79 1 15 16.1 100.36   -12 Snow
23:00 Legend Double Dagger -5.8 -9.0 78 1 22 16.1 100.33   -13 LegendNANA

Notes on Data Quality.

Legend

  • E = Estimated
  • M = Missing
  • NA = Not Available
  • ‡ = Partner data that is not subject to review by the National Climate Archives
Date modified: